NOAA 16 DEB

Satellite information

Favourite Embed

Satellite Type and Status

DEBRISIN ORBIT

Key statistics

Satellite NOAA 16 DEB at a glance.

Uptime

9214

Days in orbit

Revolutions

≈ 14.3

Per day

Orbit

SSO

Sun Synchronous Orbit

Inclination

98.6

Latest

Satellite identification and parameters

Extended collection of information and parameters for NOAA 16 DEB.

Object identification

Identified? True

Debris? True

Object name: NOAA 16 DEB

International designator: 2000-055G

Object number (NORAD): 41049

Object ID (CCSDS): 41049

Country: UNITED STATES OF AMERICA (US)

Current information (Y/N): Y

RCS size: SMALL

Orbital parameters

Period: 100.98 minutes

Inclination: 98.6474 deg

SMA: 7183.176 km

Apoapsis: 808.532 km

Periapsis: 801.551 km

RAAN: 45.5255 deg

Eccentricy: 0.00048595

Argument of periapsis: 1.4334 deg

Mean anomaly: 358.6859 deg

Mean motion: 14.2602768 rev/day

Mean motion (dot): 0.00005416 rev/day2

B* drag term: 0.0022852289 1/REarth

Two-line elements (TLE)

Creation date: Dec. 12, 2025, 10:14 a.m.

Reference frame: TEME

Reference center: EARTH

Epoch: Dec. 12, 2025, 3:10 a.m. UTC

TLE line 0: 0 NOAA 16 DEB

TLE line 1: 1 41049U 00055G 25346.13226132 .00005416 00000-0 22852-2 0 9995

TLE line 2: 2 41049 98.6474 45.5255 0004860 1.4334 358.6859 14.26027680519013

Live tracking on map

Real-time ground track for satellite NOAA 16 DEB.

In-orbit conjunctions

A list of the most updated potential collisions computed for object NOAA 16 DEB.

Target Orbit TCA Probability of collision Miss distance Type
COSMOS 1275 DEB LEO 2025-09-14 17:12:18 0.0001006408 149.0 (m) DEBRIS
SL-16 DEB LEO 2024-10-23 01:42:35 0.0001983 99.0 (m) DEBRIS
METEOR 2-8 DEB LEO 2024-07-07 19:14:16 0.0001412222 76.0 (m) DEBRIS

Associated space launch

The NOAA K, L and M POES satellites begin the fifth generation of improved environmental monitoring in support of NOAA missions. The instrument payload has significant improvements and additions/deletions. The instrument changes have effected the spacecraft subsystems and data formats.

NOAA 16 DEB was lifted into orbit during the mission ‘Titan II SLV | NOAA 16’, on board a Titan II SLV space rocket.

The launch took place on Sept. 21, 2000, 10:22 a.m. from Space Launch Complex 4W.

For more information about the launch, click the button.

Launch to space Titan II SLV | NOAA 16
Titan II SLV | NOAA 16

Agency: N/A

Status: Launch Successful

Launch date: Sept. 21, 2000, 10:22 a.m. UTC

Rocket: Titan II SLV

Launch pad: Space Launch Complex 4W

Location: Vandenberg SFB, CA, USA

...

Latest news about this satellite

There are no fresh news available about this satellite. Check back as we update our databases every day.


Newsletter sign-up

Weekly statistics, charts and insights to help you stay on top of the space industry.